This is the latest recevied weather packets stored in our database for station/object KN6WGU. If no packets are shown the sender has not sent any weather packets the latest 10 day(s).
| Time | Temp. | Humidity | Pressure | Rain* | Wind** | Luminosity | Snow |
|---|---|---|---|---|---|---|---|
| 1777825437 | 15° C | 44% | 1008.2 hPa | 0 mm | - | 192 W/m² | - |
| 1777825134 | 15° C | 44% | 1008.3 hPa | 0 mm | - | 68 W/m² | - |
| 1777824830 | 14.44° C | 47% | 1008.6 hPa | 0 mm | - | 60 W/m² | - |
| 1777824527 | 14.44° C | 47% | 1008.6 hPa | 0 mm | - | 61 W/m² | - |
| 1777824223 | 14.44° C | 46% | 1008.3 hPa | 0 mm | - | 67 W/m² | - |
| 1777823919 | 14.44° C | 48% | 1008.3 hPa | 0 mm | - | 60 W/m² | - |
| 1777823617 | 13.89° C | 46% | 1008.6 hPa | 0 mm | - | 59 W/m² | - |
| 1777823313 | 13.89° C | 47% | 1008.5 hPa | 0 mm | - | 58 W/m² | - |
| 1777823011 | 13.89° C | 47% | 1008.8 hPa | 0 mm | - | 57 W/m² | - |
| 1777822709 | 13.33° C | 49% | 1008.8 hPa | 0 mm | - | 56 W/m² | - |
| 1777822407 | 13.33° C | 45% | 1008.7 hPa | 0 mm | - | 58 W/m² | - |
| 1777822104 | 13.33° C | 47% | 1009 hPa | 0 mm | - | 91 W/m² | - |
| 1777821802 | 13.33° C | 46% | 1008.9 hPa | 0 mm | - | 58 W/m² | - |
| 1777821499 | 12.78° C | 51% | 1008.8 hPa | 0 mm | - | 55 W/m² | - |
| 1777821196 | 12.78° C | 47% | 1008.9 hPa | 0 mm | - | 55 W/m² | - |
| 1777820893 | 12.78° C | 47% | 1008.8 hPa | 0 mm | - | 54 W/m² | - |
| 1777820589 | 12.78° C | 46% | 1009.1 hPa | 0 mm | - | 54 W/m² | - |
| 1777820286 | 12.22° C | 48% | 1009 hPa | 0 mm | - | 53 W/m² | - |
| 1777819984 | 12.22° C | 47% | 1009 hPa | 0 mm | - | 53 W/m² | - |
| 1777819680 | 12.22° C | 49% | 1009 hPa | 0 mm | - | 52 W/m² | - |
| 1777819379 | 11.67° C | 47% | 1009.1 hPa | 0 mm | - | 53 W/m² | - |
| 1777819075 | 11.67° C | 51% | 1008.9 hPa | 0 mm | - | 52 W/m² | - |
| 1777818772 | 11.67° C | 49% | 1009 hPa | 0 mm | - | 62 W/m² | - |
| 1777818468 | 11.67° C | 47% | 1009 hPa | 0 mm | - | 57 W/m² | - |
| 1777818166 | 11.67° C | 48% | 1009.1 hPa | 0 mm | - | 68 W/m² | - |
* Rain latest hour (hover to see other rain measurements)
** Current wind speed in m/s (hover to see current wind gust speed)